User: anonymous   Login
Location: Bagnara
(41.0500°N, 14.7833°E)
Time: 23:57:29
(UTC+00:00)
Language:

Cosmos 990 Rocket - Orbit

View from above orbital plane
View from above orbital plane
View from above satellite
View from above satellite

Ground track
Ground track

The orbit data is extracted from the following two-line orbital elements,

1 10677U 78019B   21271.43245383  .00000011  00000-0  11795-4 0  9990
2 10677  74.0363 290.9903 0015872 335.8256  24.2152 14.40199599287366
Epoch (UTC): 28 September 2021 10:22:44
Eccentricity: 0.0015872
inclination: 74.0363°
perigee height: 746 km
apogee height: 769 km
right ascension of ascending node: 290.9903°
argument of perigee: 335.8256°
revolutions per day: 14.40199599
mean anomaly at epoch: 24.2152°
orbit number at epoch: 28736

The dashed part of the orbit path shows where the satellite is in the earth's shadow,  

DLR